Location: Lafig�re
(44.4503°N, 4.0357°E)
Time: 14:01:36
(UTC+00:00)

Transit 2A - Visible Passes

Search period start: 23 January 2021 00:00
Search period end: 02 February 2021 00:00
Orbit: 598 x 960 km, 66.7° (Epoch: 22 January)

Date Brightness Start Highest point End Pass type
(mag) Time Alt. Az. Time Alt. Az. Time Alt. Az.
23 Jan 8.7 03:10:22 14° NE 03:10:22 14° NE 03:11:11 10° NE visible
23 Jan 7.0 04:50:53 34° NNW 04:50:53 34° NNW 04:54:25 10° NNE visible
23 Jan 8.0 06:32:53 10° NW 06:33:58 11° NNW 06:35:01 10° NNW visible
24 Jan 7.6 04:18:04 26° NNE 04:18:04 26° NNE 04:20:23 10° NNE visible
24 Jan 7.8 05:58:34 13° NW 05:59:23 13° NW 06:01:56 10° N visible
25 Jan 8.3 03:45:08 17° NNE 03:45:08 17° NNE 03:46:17 10° NNE visible
25 Jan 7.7 05:25:38 17° NNW 05:25:38 17° NNW 05:28:17 10° N visible
26 Jan 7.8 04:52:37 17° N 04:52:37 17° N 04:54:29 10° N visible
27 Jan 8.2 04:19:32 15° N 04:19:32 15° N 04:20:36 10° NNE visible
28 Jan 8.6 03:46:24 11° NNE 03:46:24 11° NNE 03:46:37 10° NNE visible
29 Jan 8.3 04:53:43 10° N 04:53:43 10° N 04:53:57 10° N visible
